EST,Max TemperatureF,Mean TemperatureF,Min TemperatureF,Max Dew PointF,MeanDew PointF,Min DewpointF,Max Humidity, Mean Humidity, Min Humidity, Max Sea Level PressureIn, Mean Sea Level PressureIn, Min Sea Level PressureIn, Max VisibilityMiles, Mean VisibilityMiles, Min VisibilityMiles, Max Wind SpeedMPH, Mean Wind SpeedMPH, Max Gust SpeedMPH,PrecipitationIn, CloudCover, Events, WindDirDegrees
2012-11-1,45,42,39,41,38,36,96,91,85,29.63,29.54,29.47,10,10,10,13,8,,0.14,8,Rain,241
2012-11-2,41,38,34,37,33,30,92,85,74,29.85,29.71,29.61,10,10,6,18,10,26,0.10,8,Rain-Snow,294
2012-11-3,37,34,32,33,31,29,93,88,79,30.06,29.96,29.83,10,9,6,20,15,24,0.01,8,Rain-Snow,313
2012-11-4,36,34,31,31,29,25,96,87,76,30.11,30.07,30.02,10,8,2,14,10,17,0.00,8,Rain-Snow,315
2012-11-5,32,31,30,28,26,20,93,79,64,30.21,30.13,30.03,10,9,2,9,5,,0.00,8,Snow,348
2012-11-6,39,32,25,24,21,20,81,68,47,30.23,30.17,30.09,10,10,10,7,2,,0.00,4,,107
2012-11-7,36,29,22,22,20,18,85,70,48,30.13,30.08,30.03,10,10,10,10,6,,0.00,0,,15
2012-11-8,37,32,27,27,24,21,84,73,60,30.11,30.05,30.00,10,10,10,20,11,23,0.00,2,,329
2012-11-9,43,35,27,36,30,22,93,80,63,30.23,30.17,30.08,10,10,7,12,5,,0.00,5,,305
2012-11-10,50,44,37,40,38,36,100,80,61,30.33,30.28,30.22,10,6,2,15,3,,0.00,8,Rain,142
2012-11-11,68,58,48,42,37,34,62,49,35,30.39,30.33,30.28,10,10,10,20,11,20,0.00,4,,156
2012-11-12,63,52,41,51,45,38,97,68,53,30.29,30.19,30.02,10,9,3,29,15,38,0.33,3,Rain,181
2012-11-13,39,36,32,38,31,23,100,84,67,30.54,30.35,30.22,10,8,3,16,7,28,0.17,8,Rain,303
2012-11-14,39,32,24,27,24,22,92,73,51,30.62,30.56,30.51,10,10,10,12,3,,0.00,4,,349
2012-11-15,43,33,23,26,23,21,96,77,47,30.50,30.42,30.36,10,10,10,7,2,,0.00,0,,91
2012-11-16,41,31,21,32,25,19,96,85,56,30.54,30.43,30.35,10,9,4,10,4,,0.00,1,,346
2012-11-17,46,34,23,33,27,22,96,83,56,30.69,30.64,30.54,10,8,4,6,3,,0.00,0,,72
2012-11-18,46,35,24,31,27,23,100,80,50,30.70,30.63,30.56,10,8,4,8,5,,0.00,0,,103
2012-11-19,48,37,26,31,27,24,92,72,44,30.55,30.42,30.27,10,10,9,7,5,,0.00,0,,107
2012-11-20,47,38,30,35,29,25,100,79,46,30.25,30.19,30.14,10,9,2,7,4,,0.00,0,,64
2012-11-21,50,38,27,35,30,26,100,84,50,30.28,30.24,30.19,10,7,3,7,2,,0.00,0,,49
2012-11-22,57,43,29,31,28,25,92,62,31,30.27,30.19,30.05,10,10,6,10,7,,0.00,0,,128
2012-11-23,50,44,36,41,30,21,71,60,50,30.04,29.82,29.70,10,10,10,22,11,30,0.00,4,Rain,198
2012-11-24,34,31,28,27,21,18,86,68,55,29.90,29.81,29.74,10,10,6,23,18,31,0.00,7,Rain-Snow,289
2012-11-25,32,30,28,27,21,16,85,68,58,29.92,29.89,29.84,10,9,3,23,14,28,0.00,8,Snow,259
2012-11-26,38,34,30,25,23,21,80,67,51,30.25,30.08,29.87,10,10,10,17,8,21,0.00,7,,265
2012-11-27,34,32,29,26,22,17,81,67,48,30.30,30.27,30.22,10,10,4,9,3,,0.00,7,Snow,308
2012-11-28,32,27,22,27,22,18,89,74,55,30.27,30.23,30.15,10,9,3,12,4,17,0.00,6,Snow,240
2012-11-29,43,35,27,25,21,18,78,62,42,30.31,30.27,30.23,10,10,10,15,7,22,0.00,3,,247
2012-11-30,32,30,28,29,26,19,100,90,57,30.43,30.37,30.29,10,6,1,7,4,,0.00,8,Snow,303